Regional Weather Roundup
Issued by NWS Jackson, KY

Home | Current Version | Previous Version | Graphics & Text | Print | Product List | Glossary On
Versions: 1 2 3 4 5 6 7 8 9 10 11 12 13 14 15 16 17 18 19 20 21 22 23 24 25 26 27 28 29 30 31 32 33 34 35 36 37 38 39 40 41 42 43 44 45 46 47 48 49 50
000
ASUS43 KJKL 221610
RWRJKL

EAST KENTUCKY HOURLY WEATHER ROUNDUP
NATIONAL WEATHER SERVICE JACKSON KY
1200 PM EDT TUE AUG 22 2017

NOTE: "FAIR" INDICATES FEW OR NO CLOUDS BELOW 12,000 FEET WITH
NO SIGNIFICANT WEATHER AND/OR OBSTRUCTIONS TO VISIBILITY.

* THESE REPORTS ARE NOT UNDER NWS QUALITY CONTROL AND MAY NOT
  REPORT WEATHER SUCH AS PRECIPITATION AND FOG.

KYZ079-080-083-085-087-088-110-112-115-119-120-221700
...EASTERN KENTUCKY...

CITY           SKY/WX    TMP DP  RH WIND       PRES   REMARKS
JACKSON        SUNNY     85  72  65 VRB3      30.08F HX  91
LONDON         MOSUNNY   85  71  63 SW9G18    30.10F HX  90
SOMERSET*      CLOUDY    82  70  65 W13       30.09S
MONTICELLO*    MOSUNNY   87  75  67 SW14G23   30.10F HX  96
WILLIAMSBURG*  MOSUNNY   84  73  70 SW8       30.10F HX  91
MIDDLESBORO*   PTSUNNY   84  72  66 S9G16     30.12F HX  90
HARLAN APT*    SUNNY     84  68  58 CALM      30.13F
PIKE CO APT*     N/A     83  71  67 SW8       30.10F
BIG SANDY APT* SUNNY     85  72  63 SW10G16   30.08F HX  91
MOREHEAD APT*  MOSUNNY   84  72  65 SW12G18   30.05S
$$

KYZ035-036-041-042-044-050-067-078-099-221700
...CENTRAL KENTUCKY...

CITY           SKY/WX    TMP DP  RH WIND       PRES   REMARKS
MT STERLING*   PTSUNNY   84  73  70 W10G17    30.05S HX  91
FLEMING/MASON* CLOUDY    86  73  66 SW9       30.01F HX  92
DANVILLE*      MOSUNNY   86  72  62 SW9       30.06S HX  92
LEXINGTON      MOSUNNY   86  72  62 SW15      30.03S HX  92
FRANKFORT      MOSUNNY   88  73  61 SW13      30.00S HX  95
LOUISVILLE     CLOUDY    89  74  60 W18G25    29.97F HX  98
LEBANON*         N/A     84  73  70 SW10      30.04S HX  91
GLASGOW*       MOSUNNY   87  73  61 SW9G17    30.05S HX  94
BOWLING GREEN  MOSUNNY   88  75  65 W9G20     30.04R HX  97
$$

KYZ091>093-OHZ055-061-077-WVZ005-015-034-035-042-221700
...SOUTHERN OHIO/WEST VIRGINIA...

CITY           SKY/WX    TMP DP  RH WIND       PRES   REMARKS
COVINGTON      CLOUDY    85  76  74 W10G21    29.97S HX  94
COLUMBUS       CLOUDY    84  73  69 W15G23    29.92F HX  90
DAYTON         PTSUNNY   79  72  79 W14       29.95S
WILMINGTON     PTSUNNY   86  75  69 SW20      29.94F HX  95
HUNTINGTON     MOSUNNY   87  71  58 SW10      30.02S HX  93
CHARLESTON     MOSUNNY   86  68  54 SW14G20   30.04F
PINEVILLE*     PTSUNNY   84  68  59 MISG      30.17F
BECKLEY        PTSUNNY   80  66  62 W12G22    30.17S
BLUEFIELD      PTSUNNY   77  64  64 W12       30.20F
LOGAN CO APT*    N/A     82  70  65 SW8G15    30.10F
$$

VAZ002-007-008-TNZ017-027-036-066-071-221700
...SOUTHWEST VIRGINIA/EAST TENNESSEE...

CITY           SKY/WX    TMP DP  RH WIND       PRES   REMARKS
WISE*          SUNNY     79  66  65 SW13G18   30.21F
JONESVILLE*      N/A     84  70  61 SW8       30.16F
ABINGDON*      PTSUNNY   82  71  68 W10       30.18F
BRISTOL        MOSUNNY   84  70  62 SW13      30.16F
MORRISTOWN*    MOSUNNY   84  70  61 W9        30.13F
SEVIERVILLE*   SUNNY     90  70  51 W9        30.11F HX  95
KNOXVILLE      MOSUNNY   85  70  60 SW7       30.11F
LAFOLLETTE*    MOSUNNY   86  72  62 SW6       30.15F HX  92
OAK RIDGE      SUNNY     85  71  63 VRB3      30.13F HX  90
CROSSVILLE     PTSUNNY   81  69  67 VRB5      30.17F
NASHVILLE      PTSUNNY   90  73  57 SW10G21   30.07S HX  98
$$

...KEY TO REMARKS...
VSB - VISIBILITY IN MILES
WCI - WIND CHILL INDEX
HX  - HEAT INDEX

$$



USA.gov is the U.S. government's official web portal to all federal, state and local government web resources and services.